Location: Izdebno
(52.6670°N, 16.2170°E)
Time: 19:18:11
(UTC+01:00)

Transit 4A - All Passes

Search period start: 22 February 2024 00:00
Search period end: 03 March 2024 00:00
Orbit: 869 x 974 km, 66.8° (Epoch: 21 February)

Date Brightness Start Highest point End Pass type
(mag) Time Alt. Az. Time Alt. Az. Time Alt. Az.
22 Feb - 00:59:07 10° SSE 01:03:46 23° ESE 01:08:20 10° ENE visible
22 Feb - 02:43:15 10° SW 02:49:27 89° NW 02:55:31 10° NE visible
22 Feb - 04:31:07 10° W 04:36:33 32° NNW 04:41:51 10° NE visible
22 Feb - 06:20:15 10° NW 06:24:43 21° N 06:29:08 10° NE visible
22 Feb - 08:07:51 10° NW 08:12:59 29° NNE 08:18:02 10° E daylight
22 Feb - 09:54:16 10° NW 10:00:13 79° NE 10:06:02 10° SE daylight
22 Feb - 11:41:18 10° WNW 11:45:57 25° WSW 11:50:33 10° SSW daylight
23 Feb - 01:07:16 10° S 01:12:36 31° ESE 01:17:49 10° NE visible
23 Feb - 02:52:25 10° SW 02:58:35 69° NW 03:04:36 10° NE visible
23 Feb - 04:40:48 10° W 04:45:57 27° NNW 04:51:00 10° NE visible
23 Feb - 06:29:47 10° NW 06:34:15 21° N 06:38:40 10° NE daylight
23 Feb - 08:17:00 10° NW 08:22:22 34° NNE 08:27:40 10° E daylight
23 Feb - 10:03:23 10° NW 10:09:18 79° SW 10:15:06 10° SSE daylight
23 Feb - 11:51:00 10° WNW 11:54:43 18° WSW 11:58:25 10° SW daylight
24 Feb - 01:15:44 10° S 01:21:29 42° ESE 01:27:08 10° NE visible
24 Feb - 03:01:45 10° WSW 03:07:47 54° NW 03:13:40 10° NE visible
24 Feb - 04:50:32 10° WNW 04:55:25 24° NNW 05:00:13 10° NE visible
24 Feb - 06:39:13 10° NW 06:43:47 22° N 06:48:17 10° ENE daylight
24 Feb - 08:26:06 10° NW 08:31:42 41° NE 08:37:12 10° ESE daylight
24 Feb - 10:12:32 10° NW 10:18:19 59° WSW 10:24:00 10° SSE daylight
24 Feb - 12:01:22 10° W 12:03:25 12° W 12:05:27 10° WSW daylight
24 Feb - 23:42:58 10° ESE 23:45:18 12° E 23:47:36 10° ENE visible
25 Feb - 01:24:25 10° SSW 01:30:27 58° ESE 01:36:21 10° NE visible
25 Feb - 03:11:13 10° WSW 03:17:02 43° NW 03:22:45 10° NE visible
25 Feb - 05:00:15 10° WNW 05:04:55 22° NNW 05:09:29 10° NE visible
25 Feb - 06:48:33 10° NW 06:53:17 24° NNE 06:57:57 10° ENE daylight
25 Feb - 08:35:11 10° NW 08:40:59 51° NE 08:46:39 10° ESE daylight
25 Feb - 10:21:45 10° NW 10:27:16 43° WSW 10:32:42 10° S daylight
25 Feb - 23:50:03 10° SE 23:54:00 18° ESE 23:57:54 10° ENE visible
26 Feb - 01:33:18 10° SSW 01:39:28 77° SE 01:45:30 10° NE visible
26 Feb - 03:20:46 10° W 03:26:21 36° NNW 03:31:50 10° NE visible
26 Feb - 05:09:55 10° NW 05:14:25 21° N 05:18:52 10° NE visible
26 Feb - 06:57:47 10° NW 07:02:45 26° NNE 07:07:38 10° ENE daylight
26 Feb - 08:44:17 10° NW 08:50:11 66° NE 08:55:58 10° SE daylight
26 Feb - 10:31:05 10° NW 10:36:09 31° WSW 10:41:09 10° S daylight
26 Feb - 23:57:54 10° SSE 00:02:47 25° ESE 00:07:35 10° ENE visible
27 Feb - 01:42:22 10° SW 01:48:34 82° NW 01:54:36 10° NE visible
27 Feb - 03:30:25 10° W 03:35:44 30° NNW 03:40:57 10° NE visible
27 Feb - 05:19:31 10° NW 05:23:57 21° N 05:28:20 10° NE visible
27 Feb - 07:06:59 10° NW 07:12:11 30° NNE 07:17:18 10° E daylight
27 Feb - 08:53:22 10° NW 08:59:19 85° NE 09:05:08 10° SE daylight
27 Feb - 10:40:34 10° WNW 10:44:58 22° WSW 10:49:19 10° SSW daylight
28 Feb - 00:06:10 10° S 00:11:38 34° ESE 00:17:00 10° NE visible
28 Feb - 01:51:37 10° SW 01:57:43 64° NW 02:03:41 10° NE visible
28 Feb - 03:40:07 10° WNW 03:45:09 26° NNW 03:50:06 10° NE visible
28 Feb - 05:29:01 10° NW 05:33:30 21° N 05:37:54 10° NE visible
28 Feb - 07:16:06 10° NW 07:21:33 36° NNE 07:26:54 10° E daylight
28 Feb - 09:02:29 10° NW 09:08:23 73° SW 09:14:09 10° SSE daylight
28 Feb - 10:50:23 10° WNW 10:53:42 16° WSW 10:57:00 10° SW daylight
29 Feb - 00:14:42 10° S 00:20:33 47° ESE 00:26:16 10° NE visible
29 Feb - 02:00:59 10° WSW 02:06:56 50° NW 02:12:45 10° NE visible
29 Feb - 03:49:51 10° WNW 03:54:38 24° NNW 03:59:20 10° NE visible
29 Feb - 05:38:25 10° NW 05:43:01 22° NNE 05:47:32 10° ENE visible
29 Feb - 07:25:12 10° NW 07:30:51 44° NE 07:36:25 10° ESE daylight
29 Feb - 09:11:40 10° NW 09:17:22 53° WSW 09:22:59 10° SSE daylight
29 Feb - 11:01:32 10° W 11:02:23 10° W 11:03:12 10° WSW daylight
29 Feb - 22:41:20 10° SE 22:44:16 14° ESE 22:47:11 10° ENE night (unlit)
01 Mar - 00:23:27 10° SSW 00:29:31 63° ESE 00:35:28 10° NE visible
01 Mar - 02:10:28 10° WSW 02:16:12 41° NW 02:21:49 10° NE visible
01 Mar - 03:59:33 10° WNW 04:04:08 22° N 04:08:39 10° NE visible
01 Mar - 05:47:43 10° NW 05:52:30 24° NNE 05:57:13 10° ENE visible
01 Mar - 07:34:17 10° NW 07:40:07 55° NE 07:45:49 10° ESE daylight
01 Mar - 09:20:55 10° NW 09:26:18 39° WSW 09:31:36 10° S daylight
01 Mar - 22:48:44 10° SSE 22:53:00 20° ESE 22:57:12 10° ENE visible
02 Mar - 00:32:24 10° SSW 00:38:34 83° SE 00:44:35 10° NE visible
02 Mar - 02:20:02 10° W 02:25:32 34° NNW 02:30:55 10° NE visible
02 Mar - 04:09:12 10° NW 04:13:39 21° N 04:18:03 10° NE visible
02 Mar - 05:56:56 10° NW 06:01:58 27° NNE 06:06:53 10° E visible
02 Mar - 07:43:22 10° NW 07:49:17 72° NE 07:55:05 10° SE daylight
02 Mar - 09:30:16 10° NW 09:35:09 28° WSW 09:39:59 10° SSW daylight
02 Mar - 22:56:44 10° SSE 23:01:48 28° ESE 23:06:47 10° NE visible
